TimeCDT,TemperatureF,Dew PointF,Humidity,Sea Level PressureIn,VisibilityMPH,Wind Direction,Wind SpeedMPH,Gust SpeedMPH,PrecipitationIn,Events,Conditions,WindDirDegrees,DateUTC
12:53 AM,64.0,61.0,90,29.72,10.0,West,4.6,-,N/A,,Clear,280,2013-06-30 05:53:00
1:53 AM,63.0,61.0,93,29.71,10.0,WNW,4.6,-,N/A,,Clear,300,2013-06-30 06:53:00
2:53 AM,64.0,61.0,90,29.71,10.0,NNW,3.5,-,N/A,,Clear,330,2013-06-30 07:53:00
3:53 AM,64.0,61.0,90,29.71,10.0,Calm,Calm,-,N/A,,Mostly Cloudy,0,2013-06-30 08:53:00
4:08 AM,64.4,62.6,94,29.73,10.0,Calm,Calm,-,N/A,,Mostly Cloudy,0,2013-06-30 09:08:00
4:53 AM,63.0,61.0,93,29.73,10.0,West,3.5,-,N/A,,Mostly Cloudy,280,2013-06-30 09:53:00
5:17 AM,62.6,60.8,94,29.74,10.0,Calm,Calm,-,N/A,,Mostly Cloudy,0,2013-06-30 10:17:00
5:29 AM,62.6,62.6,100,29.74,10.0,NW,4.6,-,N/A,,Mostly Cloudy,310,2013-06-30 10:29:00
5:53 AM,64.0,62.1,93,29.74,8.0,NW,3.5,-,N/A,,Mostly Cloudy,310,2013-06-30 10:53:00
6:45 AM,64.4,62.6,94,29.76,8.0,NW,4.6,-,N/A,,Partly Cloudy,310,2013-06-30 11:45:00
6:53 AM,66.0,63.0,90,29.76,9.0,NNW,4.6,-,N/A,,Partly Cloudy,330,2013-06-30 11:53:00
7:02 AM,66.2,62.6,88,29.76,9.0,Calm,Calm,-,N/A,,Scattered Clouds,0,2013-06-30 12:02:00
7:38 AM,68.0,64.4,88,29.78,10.0,North,5.8,-,N/A,,Mostly Cloudy,350,2013-06-30 12:38:00
7:50 AM,69.8,64.4,83,29.78,10.0,NNW,9.2,-,N/A,,Mostly Cloudy,340,2013-06-30 12:50:00
7:53 AM,69.1,64.0,84,29.77,10.0,North,8.1,-,N/A,,Mostly Cloudy,350,2013-06-30 12:53:00
8:39 AM,69.8,62.6,78,29.79,10.0,North,10.4,-,N/A,,Mostly Cloudy,10,2013-06-30 13:39:00
8:53 AM,70.0,64.0,81,29.79,10.0,North,9.2,-,N/A,,Mostly Cloudy,360,2013-06-30 13:53:00
9:13 AM,69.8,64.4,83,29.80,10.0,North,11.5,-,N/A,,Overcast,360,2013-06-30 14:13:00
9:53 AM,69.1,64.0,84,29.80,8.0,North,10.4,-,0.00,Rain,Light Rain,360,2013-06-30 14:53:00
10:20 AM,73.4,64.4,73,29.81,10.0,North,12.7,19.6,0.00,,Mostly Cloudy,10,2013-06-30 15:20:00
10:53 AM,72.0,62.1,71,29.81,10.0,North,16.1,23.0,0.00,,Mostly Cloudy,360,2013-06-30 15:53:00
11:34 AM,75.2,62.6,65,29.81,10.0,North,18.4,-,N/A,,Mostly Cloudy,360,2013-06-30 16:34:00
11:53 AM,73.9,62.1,66,29.81,10.0,NNW,13.8,-,N/A,,Mostly Cloudy,340,2013-06-30 16:53:00
12:50 PM,75.2,62.6,65,29.82,10.0,North,11.5,-,N/A,,Overcast,350,2013-06-30 17:50:00
12:53 PM,75.0,62.1,64,29.81,10.0,North,11.5,-,N/A,,Overcast,350,2013-06-30 17:53:00
1:53 PM,75.9,62.1,62,29.81,10.0,North,13.8,-,N/A,,Mostly Cloudy,360,2013-06-30 18:53:00
2:53 PM,78.1,64.0,62,29.80,10.0,NNW,15.0,21.9,N/A,,Partly Cloudy,340,2013-06-30 19:53:00
3:53 PM,79.0,63.0,58,29.79,10.0,North,13.8,-,N/A,,Mostly Cloudy,350,2013-06-30 20:53:00
4:53 PM,78.1,62.1,58,29.79,10.0,North,16.1,-,N/A,,Mostly Cloudy,350,2013-06-30 21:53:00
5:53 PM,78.1,62.1,58,29.80,10.0,North,12.7,20.7,N/A,,Mostly Cloudy,360,2013-06-30 22:53:00
6:53 PM,68.0,63.0,84,29.82,9.0,NNE,9.2,-,0.02,Rain,Light Rain,20,2013-06-30 23:53:00
7:53 PM,69.1,66.0,90,29.82,10.0,North,4.6,-,0.00,,Mostly Cloudy,10,2013-07-01 00:53:00
8:53 PM,69.1,64.0,84,29.83,10.0,North,5.8,-,N/A,,Mostly Cloudy,360,2013-07-01 01:53:00
9:53 PM,69.1,64.0,84,29.85,10.0,North,6.9,-,N/A,,Overcast,350,2013-07-01 02:53:00
10:53 PM,69.1,64.0,84,29.85,10.0,North,5.8,-,N/A,,Scattered Clouds,360,2013-07-01 03:53:00
11:53 PM,69.1,64.0,84,29.85,10.0,North,8.1,-,N/A,,Scattered Clouds,350,2013-07-01 04:53:00